Location: Tamazert
(32.6352°N, 5.2072°W)
Time: 04:11:53
(UTC+00:00)

Vanguard 2 - Pass Details

Date: 04 October 2022
Orbit: 553 x 2933 km, 32.9° (Epoch: 04 December)

Event Time Altitude Azimuth Distance (km) Brightness Sun altitude
Rises 19:36:29 0° 285° (WNW) 6,517 13.8 -20.7°
Reaches altitude 10° 19:41:07 10° 278° (W) 5,655 13.1 -21.7°
Maximum altitude 19:56:25 38° 219° (SW) 3,851 11.2 -24.9°
Drops below altitude 10° 20:10:08 10° 158° (SSE) 5,048 11.4 -27.7°
Enters shadow 20:10:48 - 157° (SSE) 5,163 11.4 -27.8°
Sets 20:14:03 0° 150° (SSE) 5,772 - -28.5°
